QPF
0.01 0.00 0.00 0.00 0.00 0.01 0.02 0.03 0.03 0.03 0.04 0.04 0.04 0.06 0.08 0.07 0.07 0.05 0.03 0.04 0.03 0.03 0.02 0.02 0.03 0.02 0.03 0.04 0.04 0.04 0.04 0.06 0.09 0.14 0.18 0.21 0.22 0.22
0.01 0.00 0.00 0.00 0.00 0.01 0.02 0.03 0.06 0.07 0.06 0.05 0.06 0.07 0.08 0.05 0.04 0.03 0.02 0.02 0.02 0.01 0.01 0.01 0.02 0.01 0.02 0.02 0.03 0.03 0.03 0.05 0.07 0.11 0.16 0.20 0.22 0.23
0.01 0.00 0.00 0.01 0.01 0.01 0.02 0.03 0.05 0.08 0.06 0.05 0.06 0.08 0.07 0.04 0.03 0.02 0.02 0.02 0.01 0.01 0.01 0.01 0.02 0.02 0.02 0.02 0.02 0.01 0.02 0.03 0.04 0.06 0.09 0.14 0.18 0.22
0.02 0.01 0.00 0.01 0.01 0.01 0.01 0.02 0.05 0.07 0.07 0.06 0.05 0.06 0.07 0.05 0.03 0.02 0.02 0.03 0.02 0.02 0.01 0.01 0.01 0.01 0.02 0.02 0.01 0.01 0.01 0.01 0.02 0.03 0.04 0.06 0.09 0.14
0.02 0.02 0.01 0.01 0.01 0.01 0.01 0.03 0.05 0.07 0.07 0.07 0.06 0.07 0.07 0.05 0.05 0.04 0.03 0.03 0.03 0.03 0.02 0.01 0.01 0.01 0.01 0.01 0.01 0.01 0.01 0.01 0.01 0.02 0.03 0.04 0.05 0.08
0.02 0.02 0.01 0.01 0.01 0.01 0.01 0.03 0.04 0.05 0.05 0.06 0.06 0.07 0.06 0.06 0.05 0.04 0.05 0.05 0.05 0.04 0.03 0.02 0.02 0.01 0.01 0.01 0.01 0.01 0.01 0.01 0.01 0.01 0.02 0.03 0.04 0.06
0.03 0.02 0.01 0.01 0.01 0.01 0.01 0.02 0.03 0.03 0.04 0.05 0.05 0.06 0.07 0.07 0.06 0.05 0.04 0.05 0.05 0.04 0.03 0.02 0.01 0.01 0.00 0.01 0.01 0.01 0.01 0.01 0.01 0.01 0.01 0.01 0.02 0.03
0.03 0.03 0.02 0.01 0.01 0.01 0.01 0.02 0.04 0.03 0.03 0.05 0.05 0.05 0.07 0.06 0.05 0.05 0.04 0.04 0.05 0.04 0.03 0.03 0.02 0.01 0.00 0.00 0.01 0.01 0.01 0.01 0.01 0.00 0.01 0.01 0.01 0.01
0.04 0.04 0.03 0.01 0.01 0.01 0.01 0.01 0.02 0.03 0.04 0.05 0.06 0.04 0.05 0.05 0.05 0.04 0.04 0.04 0.04 0.04 0.02 0.02 0.01 0.00 0.00 0.00 0.00 0.00 0.00 0.00 0.00 0.00 0.00 0.00 0.00 0.00
0.04 0.04 0.04 0.03 0.02 0.02 0.02 0.01 0.01 0.01 0.02 0.03 0.05 0.04 0.03 0.03 0.04 0.04 0.04 0.05 0.05 0.04 0.01 0.00 0.00 0.00 0.00 0.00 0.00 0.00 0.00 0.00 0.00 0.00 0.00 0.00 0.00 0.00
0.05 0.05 0.05 0.03 0.03 0.03 0.03 0.02 0.01 0.02 0.03 0.05 0.04 0.05 0.04 0.04 0.03 0.04 0.05 0.05 0.05 0.03 0.01 0.00 0.00 0.00 0.00 0.00 0.00 0.00 0.00 0.00 0.00 0.00 0.00 0.00 0.00 0.00
0.08 0.07 0.06 0.05 0.04 0.04 0.04 0.03 0.03 0.03 0.03 0.04 0.04 0.04 0.03 0.03 0.03 0.02 0.03 0.04 0.03 0.02 0.01 0.00 0.00 0.00 0.00 0.00 0.00 0.00 0.00 0.00 0.00 0.00 0.00 0.00 0.00 0.00
0.14 0.10 0.07 0.06 0.05 0.05 0.05 0.04 0.04 0.03 0.03 0.03 0.03 0.03 0.03 0.03 0.02 0.01 0.02 0.02 0.02 0.01 0.00 0.00 0.00 0.00 0.00 0.00 0.00 0.00 0.00 0.00 0.00 0.00 0.00 0.00 0.00 0.00
0.20 0.15 0.11 0.09 0.07 0.07 0.07 0.07 0.07 0.04 0.03 0.02 0.02 0.02 0.02 0.02 0.01 0.01 0.01 0.01 0.00 0.00 0.00 0.00 0.00 0.00 0.00 0.00 0.00 0.00 0.00 0.00 0.00 0.00 0.00 0.00 0.00 0.00
0.26 0.23 0.18 0.15 0.10 0.08 0.09 0.09 0.06 0.03 0.02 0.02 0.02 0.02 0.01 0.01 0.00 0.00 0.00 0.00 0.00 0.00 0.00 0.00 0.00 0.00 0.00 0.00 0.00 0.00 0.00 0.00 0.00 0.00 0.00 0.00 0.00 0.00
0.33 0.31 0.24 0.19 0.14 0.11 0.11 0.09 0.05 0.04 0.03 0.01 0.01 0.01 0.01 0.00 0.00 0.00 0.00 0.00 0.00 0.00 0.00 0.00 0.00 0.00 0.00 0.00 0.00 0.00 0.00 0.00 0.00 0.00 0.00 0.00 0.00 0.00
0.41 0.37 0.29 0.19 0.14 0.11 0.10 0.07 0.05 0.05 0.03 0.01 0.01 0.01 0.00 0.00 0.00 0.00 0.00 0.00 0.00 0.00 0.00 0.00 0.00 0.00 0.00 0.00 0.00 0.00 0.00 0.00 0.00 0.00 0.00 0.00 0.00 0.00
0.47 0.38 0.30 0.18 0.11 0.10 0.09 0.07 0.05 0.03 0.02 0.01 0.01 0.00 0.00 0.00 0.00 0.00 0.00 0.00 0.00 0.00 0.00 0.00 0.00 0.00 0.00 0.00 0.00 0.00 0.00 0.00 0.00 0.00 0.00 0.00 0.00 0.00
0.41 0.34 0.23 0.16 0.10 0.08 0.07 0.05 0.03 0.02 0.01 0.01 0.01 0.01 0.00 0.00 0.00 0.00 0.00 0.00 0.00 0.00 0.00 0.00 0.00 0.00 0.00 0.00 0.00 0.00 0.00 0.00 0.00 0.00 0.00 0.00 0.00 0.00
0.35 0.29 0.20 0.13 0.09 0.07 0.05 0.04 0.02 0.01 0.00 0.00 0.00 0.00 0.00 0.00 0.00 0.00 0.00 0.00 0.00 0.00 0.00 0.00 0.00 0.00 0.00 0.00 0.00 0.00 0.00 0.00 0.00 0.00 0.00 0.00 0.00 0.00
0.27 0.22 0.16 0.11 0.06 0.05 0.03 0.02 0.01 0.00 0.00 0.00 0.00 0.00 0.00 0.00 0.00 0.00 0.00 0.00 0.00 0.00 0.00 0.00 0.00 0.00 0.00 0.00 0.00 0.00 0.00 0.00 0.00 0.00 0.00 0.00 0.00 0.00
0.18 0.14 0.12 0.07 0.03 0.02 0.01 0.01 0.01 0.00 0.00 0.00 0.00 0.00 0.00 0.00 0.00 0.00 0.00 0.00 0.00 0.00 0.00 0.00 0.00 0.00 0.00 0.00 0.00 0.00 0.00 0.00 0.00 0.00 0.00 0.00 0.00 0.00
0.11 0.08 0.06 0.03 0.01 0.01 0.00 0.00 0.00 0.00 0.00 0.00 0.00 0.00 0.00 0.00 0.00 0.00 0.00 0.00 0.00 0.00 0.00 0.00 0.00 0.00 0.00 0.00 0.00 0.00 0.00 0.00 0.00 0.00 0.00 0.00 0.00 0.00
MSLP
1009.02 1008.97 1008.93 1008.92 1008.92 1008.94 1008.97 1009.01 1009.07 1009.15 1009.24 1009.34 1009.45 1009.54 1009.61 1009.65 1009.67 1009.66 1009.64 1009.61 1009.59 1009.58 1009.58 1009.59 1009.60 1009.59 1009.56 1009.51 1009.43 1009.35 1009.27 1009.22 1009.21 1009.25 1009.34 1009.49 1009.69 1009.93
1008.51 1008.36 1008.22 1008.12 1008.04 1008.01 1008.02 1008.09 1008.22 1008.40 1008.62 1008.88 1009.14 1009.39 1009.61 1009.79 1009.91 1009.98 1010.02 1010.03 1010.04 1010.04 1010.04 1010.04 1010.04 1010.01 1009.96 1009.88 1009.77 1009.63 1009.50 1009.39 1009.31 1009.29 1009.32 1009.41 1009.55 1009.74
1008.00 1007.75 1007.51 1007.30 1007.14 1007.05 1007.03 1007.11 1007.29 1007.56 1007.91 1008.31 1008.74 1009.15 1009.52 1009.83 1010.08 1010.25 1010.37 1010.45 1010.50 1010.54 1010.58 1010.60 1010.61 1010.60 1010.54 1010.45 1010.32 1010.15 1009.99 1009.83 1009.71 1009.64 1009.63 1009.69 1009.80 1009.95
1007.50 1007.15 1006.82 1006.52 1006.28 1006.12 1006.08 1006.16 1006.38 1006.73 1007.18 1007.70 1008.26 1008.82 1009.33 1009.78 1010.15 1010.44 1010.65 1010.82 1010.94 1011.05 1011.14 1011.21 1011.26 1011.27 1011.24 1011.15 1011.01 1010.84 1010.66 1010.48 1010.34 1010.25 1010.23 1010.27 1010.37 1010.51
1006.97 1006.56 1006.16 1005.79 1005.49 1005.29 1005.22 1005.31 1005.55 1005.95 1006.48 1007.10 1007.76 1008.43 1009.07 1009.63 1010.11 1010.51 1010.83 1011.10 1011.31 1011.50 1011.67 1011.81 1011.91 1011.97 1011.97 1011.91 1011.79 1011.62 1011.44 1011.27 1011.12 1011.03 1011.01 1011.06 1011.18 1011.33
1006.40 1005.96 1005.52 1005.11 1004.78 1004.56 1004.48 1004.57 1004.84 1005.26 1005.84 1006.51 1007.25 1008.00 1008.72 1009.38 1009.96 1010.46 1010.88 1011.25 1011.57 1011.86 1012.12 1012.34 1012.52 1012.64 1012.69 1012.66 1012.57 1012.42 1012.26 1012.09 1011.97 1011.89 1011.90 1011.97 1012.11 1012.28
1005.77 1005.32 1004.88 1004.47 1004.14 1003.93 1003.86 1003.96 1004.23 1004.68 1005.27 1005.96 1006.73 1007.52 1008.30 1009.02 1009.68 1010.27 1010.79 1011.27 1011.69 1012.09 1012.45 1012.76 1013.02 1013.21 1013.32 1013.34 1013.29 1013.18 1013.04 1012.90 1012.80 1012.75 1012.78 1012.88 1013.05 1013.25
1005.05 1004.62 1004.21 1003.84 1003.55 1003.37 1003.33 1003.45 1003.73 1004.18 1004.76 1005.46 1006.23 1007.03 1007.82 1008.58 1009.30 1009.96 1010.57 1011.14 1011.67 1012.17 1012.63 1013.05 1013.39 1013.66 1013.84 1013.92 1013.92 1013.85 1013.75 1013.64 1013.56 1013.54 1013.60 1013.72 1013.91 1014.14
1004.24 1003.87 1003.52 1003.22 1002.99 1002.86 1002.87 1003.02 1003.31 1003.76 1004.33 1005.01 1005.76 1006.54 1007.34 1008.11 1008.86 1009.57 1010.25 1010.91 1011.53 1012.13 1012.68 1013.19 1013.63 1013.98 1014.23 1014.38 1014.43 1014.42 1014.36 1014.29 1014.24 1014.25 1014.32 1014.45 1014.65 1014.88
1003.38 1003.07 1002.80 1002.58 1002.44 1002.40 1002.47 1002.66 1002.98 1003.43 1003.99 1004.64 1005.36 1006.12 1006.89 1007.67 1008.43 1009.17 1009.90 1010.61 1011.31 1011.98 1012.62 1013.21 1013.72 1014.15 1014.48 1014.70 1014.82 1014.87 1014.86 1014.84 1014.83 1014.85 1014.93 1015.07 1015.26 1015.48
1002.50 1002.27 1002.09 1001.98 1001.93 1001.98 1002.13 1002.39 1002.75 1003.21 1003.76 1004.39 1005.08 1005.81 1006.56 1007.32 1008.08 1008.83 1009.58 1010.33 1011.07 1011.79 1012.48 1013.13 1013.71 1014.20 1014.60 1014.89 1015.09 1015.21 1015.27 1015.30 1015.32 1015.37 1015.46 1015.59 1015.76 1015.96
1001.66 1001.51 1001.43 1001.42 1001.49 1001.64 1001.88 1002.21 1002.62 1003.11 1003.68 1004.30 1004.97 1005.67 1006.39 1007.13 1007.87 1008.62 1009.36 1010.11 1010.86 1011.60 1012.31 1012.98 1013.60 1014.15 1014.61 1014.97 1015.25 1015.44 1015.57 1015.66 1015.74 1015.82 1015.91 1016.04 1016.19 1016.35
1000.91 1000.84 1000.86 1000.96 1001.14 1001.40 1001.74 1002.15 1002.62 1003.15 1003.74 1004.37 1005.04 1005.72 1006.43 1007.13 1007.85 1008.56 1009.28 1010.00 1010.72 1011.44 1012.14 1012.81 1013.45 1014.02 1014.52 1014.95 1015.30 1015.57 1015.78 1015.94 1016.07 1016.19 1016.30 1016.43 1016.56 1016.70
1000.29 1000.31 1000.42 1000.62 1000.91 1001.27 1001.70 1002.20 1002.74 1003.33 1003.96 1004.61 1005.28 1005.97 1006.65 1007.33 1008.01 1008.69 1009.35 1010.02 1010.69 1011.35 1012.01 1012.65 1013.26 1013.84 1014.37 1014.84 1015.25 1015.60 1015.88 1016.12 1016.31 1016.48 1016.62 1016.76 1016.88 1017.00
999.84 999.94 1000.14 1000.43 1000.81 1001.26 1001.78 1002.35 1002.97 1003.61 1004.29 1004.97 1005.67 1006.35 1007.03 1007.69 1008.33 1008.95 1009.56 1010.16 1010.75 1011.34 1011.92 1012.50 1013.08 1013.64 1014.18 1014.68 1015.13 1015.54 1015.90 1016.21 1016.46 1016.68 1016.86 1017.01 1017.13 1017.24
999.57 999.73 1000.00 1000.37 1000.82 1001.35 1001.93 1002.57 1003.25 1003.96 1004.68 1005.40 1006.12 1006.82 1007.49 1008.13 1008.74 1009.31 1009.86 1010.38 1010.89 1011.40 1011.90 1012.42 1012.94 1013.46 1013.99 1014.50 1014.98 1015.43 1015.84 1016.21 1016.52 1016.77 1016.98 1017.15 1017.28 1017.39
999.46 999.68 1000.00 1000.42 1000.92 1001.50 1002.14 1002.82 1003.55 1004.30 1005.05 1005.81 1006.55 1007.27 1007.95 1008.58 1009.16 1009.70 1010.19 1010.65 1011.09 1011.52 1011.95 1012.40 1012.86 1013.34 1013.84 1014.34 1014.83 1015.30 1015.74 1016.13 1016.48 1016.76 1016.99 1017.17 1017.30 1017.40
999.50 999.76 1000.11 1000.55 1001.08 1001.68 1002.34 1003.05 1003.80 1004.58 1005.36 1006.14 1006.91 1007.64 1008.32 1008.95 1009.53 1010.04 1010.51 1010.93 1011.32 1011.70 1012.07 1012.46 1012.88 1013.31 1013.77 1014.24 1014.72 1015.18 1015.62 1016.01 1016.35 1016.64 1016.86 1017.03 1017.16 1017.25
999.64 999.92 1000.28 1000.73 1001.25 1001.85 1002.52 1003.23 1003.99 1004.77 1005.56 1006.35 1007.13 1007.87 1008.56 1009.21 1009.79 1010.30 1010.76 1011.17 1011.54 1011.90 1012.25 1012.60 1012.98 1013.37 1013.79 1014.23 1014.67 1015.09 1015.49 1015.86 1016.17 1016.42 1016.61 1016.76 1016.85 1016.91
999.86 1000.13 1000.49 1000.92 1001.43 1002.01 1002.65 1003.35 1004.09 1004.86 1005.64 1006.43 1007.21 1007.96 1008.66 1009.32 1009.91 1010.45 1010.92 1011.35 1011.74 1012.09 1012.44 1012.79 1013.14 1013.51 1013.89 1014.28 1014.66 1015.03 1015.37 1015.67 1015.92 1016.12 1016.26 1016.35 1016.40 1016.42
1000.12 1000.37 1000.70 1001.11 1001.58 1002.13 1002.74 1003.41 1004.12 1004.86 1005.63 1006.40 1007.17 1007.91 1008.63 1009.29 1009.91 1010.48 1010.99 1011.45 1011.87 1012.25 1012.62 1012.97 1013.32 1013.67 1014.01 1014.35 1014.67 1014.96 1015.22 1015.44 1015.61 1015.73 1015.80 1015.83 1015.82 1015.80
1000.38 1000.61 1000.91 1001.27 1001.71 1002.22 1002.80 1003.43 1004.10 1004.81 1005.55 1006.30 1007.05 1007.78 1008.49 1009.17 1009.81 1010.41 1010.95 1011.46 1011.91 1012.34 1012.73 1013.10 1013.45 1013.78 1014.08 1014.37 1014.62 1014.84 1015.02 1015.15 1015.23 1015.27 1015.26 1015.22 1015.16 1015.09
1000.62 1000.82 1001.09 1001.42 1001.83 1002.30 1002.84 1003.43 1004.07 1004.75 1005.45 1006.17 1006.89 1007.61 1008.31 1008.99 1009.63 1010.25 1010.82 1011.36 1011.85 1012.31 1012.72 1013.10 1013.45 1013.76 1014.04 1014.27 1014.46 1014.61 1014.71 1014.76 1014.76 1014.73 1014.66 1014.57 1014.46 1014.36
Thickness
5690 5691 5692 5694 5695 5695 5694 5691 5687 5684 5683 5685 5685 5686 5686 5686 5686 5686 5687 5688 5689 5691 5693 5695 5697 5700 5702 5705 5708 5711 5713 5716 5718 5720 5721 5722 5722 5722
5683 5685 5687 5690 5691 5692 5692 5690 5688 5684 5681 5680 5680 5680 5679 5679 5677 5677 5678 5679 5680 5682 5684 5686 5689 5692 5694 5697 5699 5702 5704 5707 5709 5712 5714 5716 5716 5716
5674 5678 5681 5684 5686 5688 5688 5687 5686 5683 5679 5677 5676 5674 5672 5671 5669 5669 5668 5669 5670 5672 5675 5677 5679 5682 5684 5686 5688 5690 5693 5696 5698 5701 5703 5705 5707 5708
5665 5669 5674 5678 5680 5683 5684 5684 5683 5682 5678 5674 5671 5668 5666 5664 5663 5661 5660 5660 5661 5662 5664 5667 5669 5671 5673 5675 5677 5679 5681 5683 5685 5688 5690 5693 5694 5695
5655 5660 5666 5670 5674 5677 5679 5679 5679 5679 5677 5673 5668 5664 5661 5658 5656 5653 5651 5651 5651 5652 5653 5655 5657 5659 5661 5663 5666 5667 5669 5671 5673 5674 5676 5679 5680 5681
5645 5652 5658 5663 5668 5671 5673 5674 5675 5673 5672 5669 5664 5660 5656 5653 5650 5646 5643 5643 5642 5642 5643 5644 5646 5648 5650 5652 5654 5655 5657 5659 5660 5661 5663 5665 5666 5667
5633 5642 5650 5656 5662 5665 5668 5669 5669 5668 5667 5665 5661 5657 5653 5648 5645 5641 5638 5634 5632 5632 5633 5634 5635 5636 5637 5639 5642 5643 5645 5647 5648 5649 5650 5652 5653 5654
5619 5630 5639 5648 5654 5659 5663 5665 5666 5665 5664 5662 5658 5655 5651 5646 5641 5638 5633 5631 5626 5624 5626 5624 5625 5625 5626 5628 5630 5633 5634 5635 5637 5638 5638 5639 5640 5640
5606 5617 5628 5638 5645 5650 5656 5659 5661 5662 5664 5662 5657 5654 5649 5645 5640 5634 5629 5627 5625 5620 5619 5615 5615 5615 5616 5618 5620 5622 5624 5625 5626 5627 5627 5627 5628 5628
5592 5604 5616 5627 5635 5641 5646 5649 5652 5654 5657 5657 5655 5652 5648 5643 5639 5633 5627 5622 5618 5615 5615 5609 5607 5606 5607 5608 5611 5612 5614 5616 5617 5618 5618 5618 5618 5618
5579 5592 5605 5616 5625 5632 5637 5640 5643 5645 5648 5649 5648 5646 5642 5638 5634 5628 5621 5618 5611 5607 5607 5605 5600 5598 5599 5599 5602 5604 5606 5608 5609 5610 5610 5610 5610 5611
5568 5581 5594 5605 5614 5622 5629 5633 5635 5637 5639 5639 5638 5636 5633 5631 5629 5625 5621 5616 5609 5602 5602 5601 5596 5596 5592 5592 5594 5596 5598 5600 5602 5603 5603 5604 5604 5604
5557 5570 5583 5594 5604 5612 5621 5627 5630 5631 5632 5632 5629 5627 5625 5623 5621 5619 5618 5616 5610 5605 5603 5601 5595 5594 5592 5588 5589 5590 5592 5594 5595 5596 5597 5598 5599 5599
5551 5562 5574 5583 5593 5602 5610 5616 5620 5623 5624 5623 5621 5618 5616 5615 5614 5613 5612 5611 5610 5609 5606 5604 5598 5595 5591 5587 5586 5586 5587 5589 5590 5590 5591 5592 5592 5593
5546 5556 5566 5574 5584 5593 5599 5605 5611 5615 5616 5615 5613 5610 5609 5609 5608 5606 5604 5603 5603 5603 5603 5603 5602 5597 5594 5589 5586 5584 5584 5585 5586 5586 5586 5587 5587 5587
5540 5549 5557 5566 5576 5584 5590 5597 5603 5607 5609 5608 5605 5603 5602 5601 5600 5601 5598 5597 5594 5592 5595 5599 5600 5598 5592 5589 5587 5584 5584 5583 5583 5583 5583 5582 5582 5582
5535 5543 5551 5560 5569 5576 5582 5589 5594 5598 5599 5599 5598 5596 5594 5593 5591 5592 5592 5592 5590 5587 5586 5589 5592 5594 5592 5588 5583 5582 5581 5581 5581 5580 5578 5577 5577 5577
5531 5541 5549 5558 5567 5573 5578 5583 5587 5590 5591 5592 5591 5589 5588 5587 5585 5585 5586 5587 5584 5583 5583 5583 5586 5585 5582 5580 5583 5580 5579 5579 5578 5577 5575 5572 5571 5572
5531 5539 5548 5555 5563 5569 5574 5579 5581 5584 5585 5585 5585 5583 5583 5582 5582 5580 5580 5580 5578 5578 5579 5580 5582 5581 5577 5575 5576 5579 5577 5575 5573 5572 5570 5569 5568 5568
5531 5540 5547 5554 5561 5567 5571 5575 5577 5578 5579 5580 5580 5579 5579 5579 5578 5577 5577 5577 5575 5575 5575 5576 5578 5579 5577 5574 5573 5574 5576 5573 5570 5567 5565 5563 5562 5562
5532 5540 5547 5553 5559 5565 5569 5572 5573 5574 5576 5576 5576 5576 5577 5577 5576 5575 5576 5576 5575 5574 5573 5574 5577 5578 5576 5573 5570 5570 5571 5571 5570 5566 5562 5557 5554 5551
5534 5541 5547 5553 5558 5563 5566 5569 5570 5572 5573 5574 5575 5575 5576 5576 5576 5575 5575 5575 5574 5574 5574 5573 5572 5572 5571 5569 5567 5566 5566 5566 5565 5563 5560 5558 5551 5547
5536 5543 5549 5554 5559 5563 5566 5568 5570 5571 5573 5574 5575 5575 5575 5575 5576 5575 5575 5575 5574 5572 5571 5568 5567 5567 5567 5566 5563 5561 5562 5560 5557 5555 5554 5555 5552 5551